TimeCST,TemperatureF,Dew PointF,Humidity,Sea Level PressureIn,VisibilityMPH,Wind Direction,Wind SpeedMPH,Gust SpeedMPH,PrecipitationIn,Events,Conditions,WindDirDegrees,DateUTC
12:08 AM,64.4,62.6,94,29.78,10.0,WNW,10.4,-,N/A,,Overcast,300,2012-12-29 06:08:00
12:11 AM,64.4,62.6,94,29.78,10.0,NW,8.1,-,N/A,,Overcast,310,2012-12-29 06:11:00
12:25 AM,64.4,62.6,94,29.79,10.0,NW,10.4,-,N/A,,Overcast,310,2012-12-29 06:25:00
12:36 AM,62.6,60.8,94,29.79,10.0,NW,11.5,19.6,N/A,,Overcast,310,2012-12-29 06:36:00
12:47 AM,62.6,59.0,88,29.80,10.0,NW,16.1,26.5,N/A,,Mostly Cloudy,310,2012-12-29 06:47:00
12:56 AM,61.0,57.0,87,29.77,10.0,WNW,16.1,24.2,N/A,,Mostly Cloudy,300,2012-12-29 06:56:00
1:08 AM,60.8,55.4,82,29.82,10.0,WNW,15.0,25.3,N/A,,Mostly Cloudy,300,2012-12-29 07:08:00
1:20 AM,59.0,55.4,88,29.83,10.0,NW,16.1,24.2,N/A,,Mostly Cloudy,310,2012-12-29 07:20:00
1:56 AM,55.0,52.0,89,29.82,10.0,NW,15.0,32.2,N/A,,Overcast,320,2012-12-29 07:56:00
2:56 AM,53.1,50.0,89,29.86,10.0,NW,13.8,23.0,N/A,,Overcast,320,2012-12-29 08:56:00
3:56 AM,48.9,43.0,80,29.89,10.0,NW,16.1,25.3,N/A,,Mostly Cloudy,320,2012-12-29 09:56:00
4:56 AM,46.9,41.0,80,29.94,10.0,NW,15.0,23.0,N/A,,Overcast,320,2012-12-29 10:56:00
5:56 AM,46.0,39.9,79,29.98,10.0,NNW,13.8,20.7,N/A,,Overcast,330,2012-12-29 11:56:00
6:53 AM,44.6,39.2,81,30.05,10.0,NW,13.8,-,N/A,,Overcast,320,2012-12-29 12:53:00
6:56 AM,45.0,39.9,82,30.02,10.0,NNW,16.1,-,N/A,,Overcast,330,2012-12-29 12:56:00
7:10 AM,44.6,39.2,81,30.06,10.0,NNW,13.8,-,N/A,,Overcast,330,2012-12-29 13:10:00
7:56 AM,44.1,37.9,79,30.05,10.0,NNW,15.0,24.2,N/A,,Overcast,330,2012-12-29 13:56:00
8:56 AM,43.0,36.0,76,30.10,10.0,NNW,15.0,24.2,N/A,,Overcast,330,2012-12-29 14:56:00
9:56 AM,43.0,35.1,74,30.11,10.0,NW,13.8,26.5,N/A,,Overcast,320,2012-12-29 15:56:00
10:56 AM,44.1,34.0,68,30.12,10.0,NW,16.1,26.5,N/A,,Overcast,320,2012-12-29 16:56:00
11:56 AM,45.0,35.1,68,30.11,10.0,NNW,15.0,21.9,N/A,,Overcast,340,2012-12-29 17:56:00
12:56 PM,48.0,34.0,58,30.09,10.0,NW,13.8,25.3,N/A,,Partly Cloudy,310,2012-12-29 18:56:00
1:56 PM,48.0,32.0,54,30.09,10.0,NNW,15.0,20.7,N/A,,Partly Cloudy,330,2012-12-29 19:56:00
2:56 PM,48.9,32.0,52,30.12,10.0,NNW,13.8,-,N/A,,Clear,330,2012-12-29 20:56:00
3:56 PM,48.0,30.9,52,30.14,10.0,NNW,15.0,23.0,N/A,,Clear,330,2012-12-29 21:56:00
4:56 PM,45.0,30.0,56,30.17,10.0,NNW,11.5,-,N/A,,Clear,330,2012-12-29 22:56:00
5:56 PM,42.1,30.9,65,30.20,10.0,NNW,10.4,-,N/A,,Clear,340,2012-12-29 23:56:00
6:56 PM,39.9,30.0,68,30.23,10.0,NNW,8.1,-,N/A,,Clear,340,2012-12-30 00:56:00
7:56 PM,37.9,30.0,73,30.26,10.0,NNW,8.1,-,N/A,,Clear,340,2012-12-30 01:56:00
8:56 PM,37.9,28.9,70,30.30,10.0,NNW,11.5,-,N/A,,Clear,340,2012-12-30 02:56:00
9:56 PM,36.0,28.0,73,30.32,10.0,NNW,9.2,-,N/A,,Clear,340,2012-12-30 03:56:00
10:56 PM,36.0,27.0,70,30.33,10.0,NNW,8.1,-,N/A,,Clear,330,2012-12-30 04:56:00